User: anonymous
Location: Unspecified
(0.0000°N, 0.0000°E)
Time: 22:58:40
(UTC+02:00)
Language:

Cosmos 1898 Rocket - Orbit

View from above orbital plane
View from above orbital plane
View from above satellite
View from above satellite

Ground track
Ground track

The orbit data is extracted from the following two-line orbital elements,

1 18586U 87098B   14237.49163708  .00000155  00000-0  61962-4 0  1053
2 18586 074.0090 025.5290 0021816 323.0230 097.8416 14.36446162399928
Epoch (UTC): 25 August 2014 11:47:57
Eccentricity: 0.0021816
inclination: 74.0090°
perigee height: 754 km
apogee height: 786 km
right ascension of ascending node: 25.5290°
argument of perigee: 323.0230°
revolutions per day: 14.36446162
mean anomaly at epoch: 97.8416°
orbit number at epoch: 39992

The dashed part of the orbit path shows where the satellite is in the earth's shadow,  

DLR